Location: Buisson
(44.2787°N, 4.9969°E)
Time: 09:54:19
(UTC+00:00)

X-37B - Pass Details

Date: 03 October 2021
Orbit: 385 x 389 km, 45.0° (Epoch: 13 October)

Event Time Altitude Azimuth Distance (km) Brightness Sun altitude
Exits shadow 03:57:24 42° 170° (S) 562 1.3 -19.1°
Drops below altitude 10° 03:59:59 10° 127° (SE) 1,409 3.9 -18.7°
Sets 04:02:05 0° 121° (ESE) 2,262 5.2 -18.3°
